Regional Weather Roundup
Issued by NWS Newport/Morehead, NC

Home | Current Version | Previous Version | Text Only | Print | Product List | Glossary On
Versions: 1 2 3 4 5 6 7 8 9 10 11 12 13 14 15 16 17 18 19 20 21 22 23 24 25 26 27 28 29 30 31 32 33 34 35 36 37 38 39 40 41 42 43 44 45 46 47 48 49 50
000
ASUS42 KMHX 301813
RWRMHX
WEATHER ROUNDUP FOR EASTERN NORTH CAROLINA
NATIONAL WEATHER SERVICE NEWPORT/MOREHEAD CITY NC
200 PM EDT THU JUL 30 2015

NOTE: "FAIR" INDICATES FEW OR NO CLOUDS BELOW 12,000 FEET
WITH NO SIGNIFICANT WEATHER AND/OR OBSTRUCTIONS TO VISIBILITY

NCZ015>017-031-032-045>047-102-103-301900-
NORTH COAST

CITY           SKY/WX    TMP DP  RH WIND       PRES   REMARKS
EDENTON          N/A     90  71  54 SW6       29.93F
ELIZABETH CITY MOSUNNY   87  74  64 E12       29.94F
KITTY HAWK     MOCLDY    87  76  68 S8        29.93F
MANTEO         PTSUNNY   87  77  72 S17       29.95F

$$

NCZ045>047-081-094-103-104-301900-
CENTRAL COAST

CITY           SKY/WX    TMP DP  RH WIND       PRES   REMARKS
FRISCO         PTSUNNY   85  77  77 S10       29.96F
SWANQUARTER      N/A     90 N/A N/A S10G17    29.91S

$$

NCZ095-097-098-100-101-301900-
SOUTHERN COAST

CITY           SKY/WX    TMP DP  RH WIND       PRES   REMARKS
BEAUFORT       SUNNY     86  78  77 S15       29.94F
CEDAR ISLAND     N/A     88 N/A N/A SE10G22   29.97F
JACKSONVILLE   MOSUNNY   87  74  64 E6        29.93F
PINEY ISLAND   CLOUDY   N/A N/A N/A MISG      29.94F
WILMINGTON     PTSUNNY   91  74  57 VRB7      29.92F HX 100


$$

NCZ011>013-027>030-043-044-078>080-089-090>093-098-301900-
COASTAL PLAIN

CITY           SKY/WX    TMP DP  RH WIND       PRES   REMARKS
AHOSKIE        SUNNY     89  70  54 SE3       29.93F
CLINTON        SUNNY     92  71  49 CALM      29.94F
ELIZABETHTOWN  SUNNY     93  68  43 CALM      29.93F
GOLDSBORO      NOT AVBL
GREENVILLE     SUNNY     91  72  52 W3        29.95F
HAVELOCK       MOSUNNY   89  75  63 S14G20    29.94F
KENANSVILLE    SUNNY     90  64  42 CALM      29.94F
KINSTON        SUNNY     90  70  51 NE5       29.94F
NEW BERN       CLOUDY    86  76  71 CALM      29.94F
RICHLANDS      MOSUNNY   90  73  58 E13       29.93F
ROCKY MOUNT    MOSUNNY   94  70  45 CALM      29.93F HX 100
WASHINGTON     SUNNY     90  73  57 E5        29.93F
WHITEVILLE     SUNNY     91  69  48 E3        29.93S

$$

AMZ130-135-150-152-154-156-158-170-250-252-270-ANZ085-086-088-633-658-670-301900-
MARINE OBSERVATIONS

STATION/POSITION TIME  TEMP    WIND        PRES    WAVE   SWELL
                       AIR SEA DIR/SP/G            HT/PER HT/PER
                 (UTC) (F)     (DEG/KT/KT) (MB)    (FT/S) (FT/S)
CHESAPEAKE LIGHT 1800   81     160/ 12/ 13 1014.3
64 E VA BEACH    1750   81 82  200/ 12/ 14 1014.1    3/ 9   2/ 9
DUCK             1700   82 64  120/  8/ 10 1013.5
2 E DUCK         1711      75                N/A     2/10
OREGON INLET     1700   83 82  190/ 17/ 19 1014.5
13E OREGON INLT  1800      81                N/A     4/ 9   2/11
HATTERAS CG      1700   86 83  170/  6/ 10 1014.5
DIAMOND BUOY     1750   84 85  180/ 19/ 23 1014.3    4/ 5   2/10
CAPE LOOKOUT     1800   84     180/  8/  9 1013.7
BEAUFORT LAB     1700   83 82  180/ 10/ 13 1013.5
30 SE NEW RVR IN NOT AVBL
27 SE WRIGHTSVLE 1700   78 83   70/  2/  4   N/A
5 SE WRIGHTSVLE  1708   82 84  110/  6/  8 1014.0
225 S CAPE HAT   1750   83 81  200/ 23/ 27 1014.7    9/ 8   3/11
41 SE CHARLESTON 1750   82 85  340/ 12/ 16 1013.3    3/ 8   2/ 8

$$



USA.gov is the U.S. government's official web portal to all federal, state and local government web resources and services.